Home > Weather > Breda > Past weeks

Flag for Netherlands Past Weather in Breda, Netherlands — Yesterday and Last 2 Weeks

Now
59 °F

Cool.


Feels Like: 59 °F
Forecast: 55 / 63 °F
Wind: 5 mph from Southwest

Location: Gilze-Rijen

Current Time: Jun 26, 2016 at 11:02:33 PM

Latest Report: Jun 26, 2016 at 9:55 PM


Visibility: N/A

Pressure: 30.04 "Hg

Humidity: 82%

Dew Point: 54 °F

Location of BredaLocation

Past Weather in Breda — Graph

°F

Breda Temperature Yesterday

Maximum temperature yesterday: 66 °F (at 6:55 PM)
Minimum temperature yesterday: 54 °F (at 4:55 AM)
Average temperature yesterday: 59 °F

High & Low Weather Summary for the Past Weeks

 TemperatureHumidityPressure
High86 °F (Jun 23, 4:55 PM)100% (Jun 12, 6:25 PM)30.27 "Hg (Jun 12, 6:25 PM)
Low46 °F (Jun 16, 4:55 AM)47% (Jun 24, 5:25 PM)29.45 "Hg (Jun 14, 2:55 PM)
Average62 °F86%29.87 "Hg
* Reported Jun 11 9:25 PM — Jun 26 9:55 PM, Breda, Weather by CustomWeather, © 2016

Note: Actual official high and low records may vary slightly from our data, if they occured in-between our weather recording intervals... More about our weather records

Advertising

Breda Weather History for the Previous 24 Hours

Scroll right to see more
 ConditionsComfort  
Time TempWeatherWind HumidityBarometerVisibility
9:55 PM
Sun, Jun 26
59 °FCool.5 mph82%30.04 "HgN/A
9:25 PM61 °FScattered clouds.5 mph77%30.04 "HgN/A
8:55 PM63 °FPassing clouds.5 mph68%30.04 "HgN/A
8:25 PM64 °FMild.8 mph64%30.04 "HgN/A
7:55 PM64 °FMild.9 mph60%30.04 "HgN/A
7:25 PM64 °FPassing clouds.7 mph64%30.04 "HgN/A
6:55 PM64 °FPartly sunny.10 mph68%30.04 "HgN/A
6:25 PM63 °FBroken clouds.9 mph73%30.04 "HgN/A
6:01 PM63 °FBroken clouds.5 mph77%30.04 "HgN/A
5:55 PM63 °FDrizzle. Partly sunny.6 mph77%30.04 "HgN/A
5:25 PM64 °FLight rain. Passing clouds.8 mph73%30.04 "HgN/A
4:55 PM64 °FScattered clouds.10 mph73%30.04 "HgN/A
4:25 PM63 °FPartly sunny.12 mph73%30.04 "HgN/A
3:55 PM66 °FBroken clouds.9 mph68%30.04 "HgN/A
3:25 PM64 °FBroken clouds.10 mph73%30.04 "HgN/A
3:01 PM63 °FOvercast.10 mph77%30.04 "HgN/A
2:55 PM64 °FBroken clouds.9 mph73%30.04 "HgN/A
2:25 PM63 °FPartly sunny.9 mph83%30.04 "HgN/A
1:55 PM59 °FLight rain. Passing clouds.8 mph88%30.04 "HgN/A
1:25 PM59 °FPassing clouds.6 mph94%30.04 "HgN/A
12:55 PM57 °FLight rain. Passing clouds.5 mph94%30.04 "HgN/A
12:25 PM57 °FThunderstorms. Passing clouds.5 mph88%30.04 "HgN/A
12:01 PM55 °FHeavy rain. Broken clouds.10 mph82%30.04 "Hg6 mi
11:55 AM57 °FRain showers. Broken clouds.12 mph94%30.04 "Hg3 mi
11:25 AM61 °FThunderstorms. Broken clouds.9 mph83%30.01 "HgN/A
10:55 AM59 °FMostly cloudy.6 mph88%30.01 "HgN/A
10:25 AM59 °FLight rain. Broken clouds.10 mph88%30.01 "HgN/A
10:01 AM61 °FBroken clouds.8 mph83%30.01 "HgN/A
9:25 AM61 °FMore clouds than sun.7 mph83%30.01 "HgN/A
8:55 AM59 °FBroken clouds.9 mph88%30.01 "HgN/A
8:25 AM59 °FPassing clouds.9 mph88%30.01 "HgN/A
8:00 AM57 °FFog.7 mph94%30.01 "Hg6 mi
7:55 AM57 °FFog.7 mph94%30.01 "Hg6 mi
7:25 AM55 °FPartly sunny.8 mph94%30.01 "HgN/A
6:55 AM54 °FFog.7 mph94%30.01 "Hg6 mi
6:25 AM52 °FFog.6 mph100%29.98 "Hg6 mi
5:55 AM52 °FFog.5 mph100%29.98 "Hg6 mi
5:25 AM52 °FPassing clouds.7 mph100%29.98 "HgN/A
5:04 AM52 °FFog.7 mph100%29.98 "Hg6 mi
4:25 AM52 °FFog.8 mph100%29.98 "Hg5 mi
3:55 AM52 °FFog.5 mph94%29.98 "Hg5 mi
3:25 AM54 °FOvercast.5 mph94%30.01 "HgN/A
2:55 AM52 °FFog.5 mph100%30.01 "Hg6 mi
2:25 AM52 °FFog.6 mph100%30.01 "Hg4 mi
1:55 AM52 °FFog.6 mph100%30.01 "Hg4 mi
1:25 AM52 °FFog.5 mph100%30.01 "Hg6 mi
12:55 AM54 °FCool.6 mph94%30.01 "HgN/A
12:25 AM54 °FCool.6 mph100%30.01 "HgN/A
11:55 PM
Sat, Jun 25
55 °FCool.7 mph94%30.01 "HgN/A
11:25 PM54 °FFog.5 mph100%30.01 "Hg2 mi
11:00 PM55 °FFog.5 mph100%30.01 "Hg2 mi
Weather by CustomWeather, © 2016

See weather overviewHow to use our weather pages